Content
SEND FEEDBACK

Daily
Averages
Monthly
Summary
United States of America

SWANNANOA, NORTH CAROLINA


Home > North America > United States > North Carolina
Elevation: 2265 feet     Latitude: 35 36N     Longitude: 082 32W

WEATHER
 
SELECT A DAY
Number of Records: 225,823;   Date Range: 1/1/95 - 7/29/14
 
SHARE

PRINT THIS DATA

[ ← Previous Day ]
WEATHER ALMANAC - FEBRUARY 13, 2013
[ Next Day → ]
[ °C ]   °F
Weather ElementAverageHighLow
Temperature40.8 °F54 °F (3:54 pm)35.1 °F (9:54 pm)
Dewpoint37.1 °F43 °F (2:54 pm)28.9 °F (9:54 pm)
Humidity87.7 %100 % (8:54 am)49 % (3:54 pm)
Barometer29.75 in29.90 in (11:54 pm)29.62 in (3:54 pm)
Wind Speed7.1 mph20.7 mph (5:54 pm)
Wind Gust29.9 mph (5:54 pm)
Weather ElementAverage
Visibility7.1 mi
Wind DirectionSSW (190.6 °)

Weather ElementTotal
Precipitation0.08 in
Heating Degree Days20.5 (Base 65)
Averaged from 33 records on February 13, 2013
WEATHER CONDITIONS BREAKOUT
WIND DIRECTION BREAKOUT
WEATHER BY HOUR - FEBRUARY 13, 2013
[ °C ]   °F
Local TimeTemperatureDewpointHumidityBarometerVisibilityWind DirectionWind SpeedGust SpeedPrecipitationEventsConditions
1:54 AM39.0 °F37.9 °F96 %29.85 in10.0 miCalm0.05 inRainLight Rain
2:54 AM39.9 °F37.0 °F89 %29.83 in10.0 miCalm0.00 inOvercast
3:54 AM39.0 °F37.9 °F96 %29.80 in10.0 miCalmOvercast
4:54 AM39.0 °F37.9 °F96 %29.79 in10.0 miSSE (150°)4.6 mph0.00 inOvercast
5:30 AM39.2 °F37.4 °F93 %29.78 in9.0 miSSE (150°)4.6 mph0.00 inOvercast
5:54 AM39.0 °F37.9 °F96 %29.78 in10.0 miSE (140°)3.5 mph0.00 inOvercast
6:54 AM39.0 °F37.9 °F96 %29.76 in10.0 miSSE (160°)3.5 mphOvercast
7:09 AM39.2 °F37.4 °F93 %29.77 in2.0 miSouth (170°)4.6 mphOvercast
7:19 AM39.2 °F37.4 °F93 %29.76 in2.0 miSE (140°)3.5 mphOvercast
7:38 AM39.2 °F37.4 °F93 %29.77 in2.0 miSSE (160°)6.9 mphOvercast
7:54 AM39.0 °F37.9 °F96 %29.78 in2.0 miSouth (180°)4.6 mphOvercast
8:54 AM39.0 °F39.0 °F100 %29.76 in2.0 miSouth (170°)5.8 mphOvercast
9:54 AM39.0 °F39.0 °F100 %29.74 in2.0 miSE (130°)5.8 mphOvercast
10:39 AM39.2 °F39.2 °F100 %29.73 in2.0 miSE (140°)4.6 mphOvercast
10:54 AM39.9 °F39.0 °F97 %29.73 in2.0 miSSE (150°)4.6 mphOvercast
11:04 AM39.2 °F39.2 °F100 %29.74 in1.5 miSSE (150°)3.5 mphOvercast
11:29 AM39.2 °F39.2 °F100 %29.71 in2.0 miESE (120°)5.8 mph0.01 inOvercast
11:51 AM41.0 °F39.2 °F93 %29.71 in3.0 miSE (140°)4.6 mph0.01 inOvercast
11:54 AM39.9 °F39.0 °F97 %29.71 in4.0 miSE (140°)5.8 mph0.01 inOvercast
12:54 PM42.1 °F39.9 °F92 %29.66 in10.0 miSE (140°)5.8 mphOvercast
1:27 PM44.6 °F42.8 °F93 %29.65 in10.0 miSouth (170°)5.8 mphOvercast
1:54 PM46.9 °F42.1 °F83 %29.63 in10.0 miSE (140°)4.6 mphOvercast
2:37 PM48.2 °F42.8 °F82 %29.63 in10.0 miSSW (210°)9.2 mphScattered Clouds
2:54 PM48.0 °F43.0 °F83 %29.63 in10.0 miSSW (210°)8.1 mphPartly Cloudy
3:54 PM54.0 °F35.1 °F49 %29.62 in10.0 miWNW (300°)16.1 mph27.6 mphPartly Cloudy
4:54 PM51.1 °F36.0 °F56 %29.65 in10.0 miNW (310°)12.7 mph23.0 mphClear
5:54 PM46.0 °F34.0 °F63 %29.70 in10.0 miNNW (340°)20.7 mph29.9 mphScattered Clouds
6:54 PM39.9 °F34.0 °F79 %29.79 in10.0 miNorth (350°)13.8 mph19.6 mphScattered Clouds
7:54 PM37.9 °F32.0 °F79 %29.81 in10.0 miNNW (340°)13.8 mphPartly Cloudy
8:54 PM36.0 °F30.0 °F79 %29.84 in10.0 miNorth (350°)11.5 mph24.2 mphPartly Cloudy
9:54 PM35.1 °F28.9 °F78 %29.87 in10.0 miNorth (350°)12.7 mph23.0 mphClear
10:54 PM35.1 °F28.9 °F78 %29.88 in10.0 miNNW (340°)9.2 mphPartly Cloudy
11:54 PM36.0 °F28.9 °F76 %29.90 in10.0 miNorth (350°)12.7 mphMostly Cloudy
Hourly data recorded from KAVL, located miles away from Swannanoa, North Carolina







STORIES FROM OUR PARTNERS